Location: Newark
(35.8833°N, 14.5000°E)
Time: 00:38:08
(UTC+00:00)

UNISAT 6 - Pass Details

Date: 23 May 2019
Orbit: 606 x 690 km, 97.8° (Epoch: 16 June)

Event Time Altitude Azimuth Distance (km) Brightness Sun altitude
Rises 20:00:58 0° 11° (N) 2,922 ? -19.5°
Reaches altitude 10° 20:03:12 10° 11° (N) 1,999 ? -19.9°
Maximum altitude 20:07:32 87° 285° (WNW) 621 ? -20.5°
Enters shadow 20:09:15 36° 196° (SSW) 971 ? -20.7°
